KN4URY Weather Reports


Display with metric or nautical units.
time (UTC)temp
F
wind
direction
speed
MPH
gust
MPH
rain 1hr
in
rain 24hr
in
rain mn
in
humidity
%
barometer
mb
20260508175332 70 341 1.0 8.0 0.00 0.10 0.01 43 1015.4
20260508174320 70 341 2.0 8.0 0.00 0.10 0.01 43 1015.5
20260508173326 69 341 3.0 8.0 0.00 0.11 0.01 39 1015.7
20260508172316 68 341 1.0 8.0 0.00 0.11 0.01 35 1015.7
20260508171330 68 341 2.0 6.0 0.00 0.11 0.01 40 1015.9
20260508170319 68 341 1.0 9.0 0.00 0.11 0.01 37 1016.2
20260508165336 69 341 1.0 4.0 0.00 0.11 0.01 38 1016.3
20260508164330 67 341 1.0 4.0 0.00 0.11 0.01 43 1016.5
20260508163318 66 341 2.0 8.0 0.00 0.11 0.01 39 1016.6
20260508162333 66 341 2.0 7.0 0.00 0.11 0.01 43 1016.8
20260508161322 66 341 0.0 4.0 0.00 0.11 0.01 46 1016.9
20260508160312 66 341 2.0 4.0 0.00 0.11 0.01 46 1016.8
20260508155347 66 341 1.0 5.0 0.00 0.11 0.01 43 1017.0
20260508154314 66 341 1.0 5.0 0.00 0.11 0.01 43 1017.1
20260508153321 64 341 2.0 4.0 0.00 0.11 0.01 42 1017.0
20260508152334 65 341 1.0 3.0 0.00 0.11 0.01 49 1017.1
20260508151328 64 341 0.0 2.0 0.00 0.11 0.01 44 1017.1
20260508150316 64 341 0.0 2.0 0.00 0.11 0.01 53 1017.1
20260508145331 63 341 1.0 2.0 0.00 0.11 0.01 56 1017.2
20260508144321 62 341 2.0 7.0 0.00 0.11 0.01 51 1017.2
20260508143358 61 341 0.0 3.0 0.00 0.11 0.01 51 1017.2
20260508142324 60 341 0.0 2.0 0.00 0.11 0.01 56 1017.1
20260508141312 59 341 0.0 2.0 0.00 0.11 0.01 59 1017.0
20260508140328 58 341 1.0 4.0 0.00 0.11 0.01 68 1017.1
20260508135316 56 341 1.0 2.0 0.00 0.11 0.01 67 1017.0
20260508134332 55 341 0.0 1.0 0.00 0.11 0.01 69 1017.1
20260508133322 54 341 1.0 4.0 0.00 0.12 0.01 73 1017.3
20260508132317 53 341 0.0 2.0 0.00 0.12 0.01 84 1017.1
20260508130325 51 341 0.0 3.0 0.00 0.12 0.01 95 1017.0
20260508125316 49 341 0.0 1.0 0.00 0.12 0.01 98 1017.0
20260508124330 48 341 0.0 1.0 0.00 0.12 0.01 98 1016.9
20260508123325 47 341 0.0 1.0 0.00 0.12 0.01 98 1016.7
20260508122313 46 341 0.0 1.0 0.00 0.12 0.01 98 1016.5
20260508121321 45 341 0.0 2.0 0.00 0.12 0.01 98 1016.5
20260508120336 45 341 0.0 1.0 0.00 0.12 0.01 98 1016.4
20260508115327 45 341 0.0 0.0 0.00 0.12 0.01 98 1016.3
20260508114316 44 341 0.0 0.0 0.00 0.12 0.01 98 1016.2
20260508113325 44 341 0.0 0.0 0.00 0.14 0.01 98 1016.2
20260508112333 44 341 0.0 0.0 0.00 0.14 0.01 98 1015.9
20260508111323 42 341 0.0 0.0 0.00 0.14 0.01 98 1015.5
20260508110341 42 341 0.0 0.0 0.00 0.14 0.01 97 1015.5
20260508105338 42 341 0.0 0.0 0.00 0.14 0.01 97 1015.3
20260508104326 41 341 0.0 0.0 0.00 0.14 0.01 97 1015.2
20260508103316 42 341 0.0 0.0 0.00 0.15 0.01 97 1015.1
20260508102333 42 341 0.0 0.0 0.00 0.15 0.01 97 1014.8
20260508101323 43 341 0.0 0.0 0.00 0.15 0.01 97 1014.7
20260508100313 43 341 0.0 0.0 0.00 0.15 0.01 98 1014.5
20260508095331 44 341 0.0 1.0 0.00 0.15 0.01 98 1014.4
20260508094321 44 341 0.0 0.0 0.00 0.15 0.01 98 1014.3
20260508093332 44 341 0.0 0.0 0.00 0.15 0.01 97 1014.2
20260508092322 44 341 0.0 0.0 0.00 0.15 0.01 98 1014.0
20260508091313 44 341 0.0 1.0 0.00 0.15 0.01 98 1014.0
20260508090347 44 341 0.0 1.0 0.00 0.15 0.01 97 1014.0
20260508085331 44 341 0.0 0.0 0.00 0.15 0.01 97 1013.9
20260508084319 44 341 0.0 0.0 0.00 0.15 0.01 97 1013.8
20260508083330 44 341 0.0 0.0 0.00 0.15 0.01 97 1013.8
20260508082321 45 341 0.0 0.0 0.01 0.15 0.01 97 1013.8
20260508081336 45 341 0.0 0.0 0.01 0.15 0.01 97 1013.7
20260508080322 46 341 0.0 0.0 0.01 0.15 0.01 97 1013.5
20260508075313 46 341 0.0 0.0 0.01 0.15 0.01 97 1013.4
20260508074328 47 341 0.0 1.0 0.01 0.15 0.01 97 1013.3
20260508073318 47 341 0.0 1.0 0.01 0.15 0.01 97 1013.3
20260508072312 48 341 0.0 1.0 0.00 0.14 0.00 97 1013.2
20260508071330 48 341 1.0 2.0 0.00 0.14 0.00 97 1013.4
20260508070348 48 341 0.0 2.0 0.00 0.14 0.00 97 1013.4
20260508065315 49 341 1.0 4.0 0.00 0.14 0.00 97 1013.3
20260508064332 49 341 1.0 3.0 0.00 0.14 0.00 97 1013.3
20260508063320 49 341 1.0 5.0 0.00 0.14 0.00 98 1013.3
20260508062355 50 341 1.0 5.0 0.00 0.14 0.00 98 1013.3
20260508061321 49 341 1.0 4.0 0.00 0.14 0.00 98 1013.1
20260508060336 48 341 1.0 3.0 0.00 0.14 0.00 98 1013.2
20260508055326 47 341 1.0 2.0 0.00 0.14 0.00 97 1013.2
20260508054316 47 341 0.0 1.0 0.00 0.14 0.00 97 1013.2
20260508053334 47 341 0.0 1.0 0.00 0.14 0.14 97 1013.0
20260508052325 47 341 0.0 1.0 0.00 0.14 0.14 98 1012.9
20260508051314 47 341 0.0 1.0 0.00 0.14 0.14 98 1012.9
20260508050329 46 341 0.0 0.0 0.00 0.14 0.14 97 1012.8
20260508045323 45 341 0.0 0.0 0.00 0.14 0.14 97 1012.9
20260508044314 44 341 0.0 0.0 0.00 0.14 0.14 97 1012.8
20260508043331 45 341 0.0 0.0 0.00 0.15 0.14 97 1012.9
20260508042322 44 341 0.0 0.0 0.00 0.15 0.14 96 1012.7
20260508041312 45 341 0.0 0.0 0.00 0.15 0.14 96 1012.5
20260508040326 46 341 0.0 0.0 0.00 0.15 0.14 97 1012.7
20260508035335 45 341 0.0 0.0 0.00 0.15 0.14 96 1012.6
20260508034326 45 341 0.0 0.0 0.00 0.15 0.14 96 1012.5
20260508033341 45 341 0.0 0.0 0.00 0.15 0.14 96 1012.2
20260508032336 46 341 0.0 0.0 0.00 0.15 0.14 96 1012.2
20260508031326 46 341 0.0 0.0 0.00 0.15 0.14 96 1012.1
20260508030316 46 341 0.0 0.0 0.00 0.15 0.14 96 1011.9
20260508025325 47 341 0.0 0.0 0.00 0.15 0.14 96 1011.8
20260508024343 47 341 0.0 0.0 0.00 0.15 0.14 96 1011.9
20260508023339 47 341 0.0 0.0 0.00 0.15 0.14 95 1011.7
20260508022325 48 341 0.0 0.0 0.00 0.15 0.14 96 1011.7
20260508021315 48 341 0.0 0.0 0.00 0.15 0.14 95 1011.7
20260508020331 48 341 0.0 0.0 0.00 0.15 0.14 95 1011.6
20260508015326 49 341 0.0 0.0 0.00 0.15 0.14 95 1011.3
20260508014341 49 341 0.0 0.0 0.00 0.15 0.14 95 1011.3
20260508013328 50 341 0.0 0.0 0.00 0.15 0.14 95 1011.0
20260508012344 50 341 0.0 0.0 0.00 0.15 0.14 94 1011.2
20260508011313 51 341 0.0 0.0 0.00 0.15 0.14 94 1011.1
20260508010329 52 341 0.0 0.0 0.00 0.15 0.14 94 1011.2
20260508005318 52 341 0.0 0.0 0.00 0.15 0.14 94 1011.2
20260508004326 52 341 0.0 0.0 0.00 0.15 0.14 94 1011.1
20260508003321 52 341 0.0 0.0 0.00 0.15 0.14 94 1010.9
20260508002311 52 341 0.0 0.0 0.00 0.15 0.14 94 1010.9
20260508001329 52 341 0.0 0.0 0.00 0.15 0.14 93 1010.8
20260508000342 53 341 0.0 0.0 0.00 0.15 0.14 93 1010.8
20260507235355 53 341 0.0 0.0 0.00 0.15 0.14 93 1010.4
20260507234323 53 341 0.0 0.0 0.00 0.15 0.14 92 1010.3
20260507233312 53 341 0.0 0.0 0.00 0.15 0.14 92 1010.2
20260507232331 53 341 0.0 0.0 0.00 0.15 0.14 91 1010.2
20260507231321 54 341 0.0 0.0 0.00 0.15 0.14 90 1010.2
20260507230313 54 341 0.0 0.0 0.00 0.15 0.14 90 1010.0
20260507225330 54 341 0.0 0.0 0.00 0.15 0.14 90 1010.0
20260507224324 55 341 0.0 1.0 0.00 0.15 0.14 90 1010.2
20260507223315 55 341 0.0 0.0 0.00 0.15 0.14 90 1010.1
20260507222331 55 341 0.0 1.0 0.00 0.15 0.14 89 1010.1
20260507221321 56 341 0.0 1.0 0.00 0.15 0.14 89 1009.8
20260507220338 56 341 0.0 1.0 0.00 0.15 0.14 92 1009.8
20260507215334 55 341 0.0 1.0 0.00 0.15 0.14 90 1009.8
20260507214350 55 341 0.0 1.0 0.03 0.15 0.14 92 1009.9
20260507213320 55 341 0.0 0.0 0.06 0.15 0.14 92 1009.9
20260507212334 55 341 0.0 1.0 0.06 0.15 0.14 92 1009.9
20260507211324 55 341 0.0 0.0 0.07 0.15 0.14 93 1009.6
20260507210334 55 341 0.0 1.0 0.07 0.15 0.14 93 1009.7
20260507205323 54 341 0.0 1.0 0.07 0.15 0.14 93 1009.8
20260507204338 54 341 0.0 1.0 0.04 0.12 0.11 92 1009.8
20260507203332 54 341 0.0 1.0 0.01 0.09 0.08 92 1009.9
20260507202321 55 341 0.0 1.0 0.01 0.09 0.08 92 1009.8
20260507201336 55 341 0.0 1.0 0.01 0.08 0.07 92 1010.0
20260507200350 55 341 0.0 1.0 0.02 0.08 0.07 92 1010.2
20260507195314 55 341 0.0 1.0 0.02 0.08 0.07 92 1010.4
20260507194329 55 341 0.0 1.0 0.02 0.08 0.07 93 1010.2
20260507193319 54 341 0.0 1.0 0.02 0.08 0.07 93 1010.3
20260507192335 54 341 0.0 1.0 0.02 0.08 0.07 93 1010.4
20260507191331 54 341 0.0 1.0 0.01 0.07 0.06 93 1010.4
20260507190324 54 341 0.0 3.0 0.00 0.06 0.05 92 1010.4
20260507185312 54 341 0.0 2.0 0.00 0.06 0.05 92 1010.5
20260507184329 55 341 0.0 2.0 0.00 0.06 0.05 91 1010.5
20260507183347 55 341 1.0 2.0 0.00 0.06 0.05 91 1010.5
20260507182317 55 341 1.0 6.0 0.00 0.06 0.05 92 1010.2
20260507181324 55 341 0.0 4.0 0.01 0.06 0.05 93 1010.5
20260507180313 54 341 0.0 7.0 0.01 0.06 0.05 92 1010.4